Temp
62 62 58 56 56 55 54 53 50 49 48 48 50 49 49 49 47 46 46 43 40 39
61 62 58 57 56 56 55 52 48 49 48 47 47 48 45 47 45 44 42 41 38 38
61 61 58 56 55 54 51 49 48 48 48 47 46 47 46 44 43 42 39 37 38 36
60 60 58 55 55 53 51 50 49 48 47 47 46 45 45 44 40 41 38 36 37 36
60 59 57 55 54 53 52 51 50 49 48 48 47 44 44 42 40 40 38 37 35 35
59 58 57 56 56 53 52 51 50 49 48 47 46 45 44 43 40 39 40 37 36 36
59 58 58 58 56 53 53 51 50 49 49 48 46 44 42 41 40 40 37 36 35 35
59 59 58 55 53 52 52 51 49 48 47 45 43 42 40 40 40 38 36 36 35 35
51 52 51 51 49 49 46 45 44 43 42 41 42 41 40 40 38 37 36 35 34 34
45 44 43 43 43 42 43 43 42 41 40 40 41 41 41 39 38 37 37 35 35 33
41 42 41 41 41 40 40 40 39 38 38 38 38 41 41 38 36 36 35 35 35 35
40 39 38 38 38 37 37 36 37 37 37 37 36 40 40 39 36 36 35 35 35 35
39 39 39 38 37 35 36 35 34 35 35 35 35 40 40 39 35 33 32 32 33 33
36 36 38 36 34 34 34 34 34 34 33 34 35 37 40 40 35 35 33 33 31 31
MSLP
1013.93 1014.68 1015.42 1016.24 1016.92 1017.55 1018.16 1018.75 1019.38 1020.12 1020.69 1021.17 1021.74 1022.29 1022.70 1023.19 1023.70 1024.15 1024.84 1025.61 1025.99 1026.74
1013.08 1013.80 1014.57 1015.41 1016.14 1016.79 1017.41 1018.13 1018.79 1019.33 1020.10 1020.67 1021.14 1021.72 1022.31 1022.74 1023.37 1024.20 1024.40 1025.08 1025.60 1026.21
1012.15 1013.04 1013.84 1014.78 1015.41 1016.15 1016.82 1017.43 1018.10 1018.66 1019.23 1019.88 1020.46 1020.98 1021.63 1022.28 1022.85 1023.63 1024.24 1025.04 1025.42 1025.90
1011.24 1012.22 1013.16 1013.95 1014.61 1015.28 1016.08 1016.62 1017.31 1017.90 1018.56 1019.12 1019.68 1020.32 1021.01 1021.60 1022.57 1023.53 1024.10 1024.61 1025.37 1025.50
1010.57 1011.43 1012.30 1013.05 1013.64 1014.39 1014.93 1015.43 1016.05 1017.04 1017.80 1018.40 1018.84 1019.34 1020.24 1021.00 1021.39 1022.48 1023.39 1024.04 1024.87 1025.51
1010.12 1010.82 1011.52 1012.08 1012.85 1013.64 1014.45 1015.07 1015.64 1016.16 1016.53 1017.30 1017.76 1018.28 1018.91 1019.64 1020.32 1021.28 1022.52 1022.87 1023.93 1024.87
1009.68 1010.09 1010.56 1011.05 1011.40 1012.48 1012.71 1013.69 1014.62 1015.33 1015.65 1016.05 1016.75 1017.46 1018.40 1019.18 1020.12 1021.00 1021.71 1022.44 1023.21 1023.94
1009.20 1009.60 1010.15 1010.66 1011.28 1011.70 1012.36 1012.69 1013.54 1014.59 1015.30 1015.59 1015.84 1016.50 1017.67 1019.13 1019.55 1020.59 1021.39 1022.25 1022.46 1023.21
1009.21 1009.57 1009.92 1010.39 1010.96 1011.62 1012.17 1012.66 1013.57 1014.22 1014.12 1015.44 1016.10 1015.81 1016.62 1018.00 1018.91 1019.96 1020.76 1021.54 1021.91 1022.86
1009.92 1010.18 1010.42 1010.90 1011.37 1011.78 1012.22 1012.98 1013.49 1013.97 1014.27 1014.64 1015.26 1015.59 1016.79 1017.27 1018.38 1019.46 1019.90 1020.69 1021.59 1022.29
1010.46 1010.46 1010.97 1011.21 1011.55 1011.93 1012.22 1012.68 1013.17 1013.67 1014.42 1014.64 1015.14 1016.40 1016.24 1016.97 1018.08 1019.06 1019.29 1020.00 1020.85 1021.53
1011.03 1011.30 1011.50 1011.59 1011.87 1012.13 1012.48 1012.76 1013.34 1013.26 1013.95 1014.60 1015.08 1015.74 1016.16 1017.03 1017.79 1018.48 1019.10 1019.77 1020.14 1020.70
1011.11 1011.20 1011.36 1011.48 1011.88 1012.05 1012.23 1012.72 1013.12 1013.95 1014.09 1014.54 1014.72 1015.07 1015.82 1016.74 1017.54 1018.22 1019.04 1019.60 1020.09 1020.60
1011.21 1011.06 1010.90 1011.15 1011.48 1011.84 1012.24 1012.60 1013.10 1013.60 1013.81 1014.28 1014.56 1015.06 1015.34 1016.24 1016.80 1017.61 1018.71 1019.43 1019.90 1020.15
Wind_Speed
18 12 10 12 10 10 10 10 9 9 8 8 8 7 7 5 5 7 7 8 6 4
15 16 12 12 11 9 9 7 9 11 10 9 8 9 8 6 7 5 6 6 7 4
15 15 11 10 12 10 8 9 10 11 11 10 9 9 9 6 6 7 4 4 7 5
14 14 12 11 11 12 10 11 12 12 12 12 12 10 10 8 7 6 6 6 6 7
13 13 14 12 13 12 14 13 14 12 12 13 13 13 12 12 11 13 11 9 7 7
13 14 15 14 11 10 10 11 10 13 14 14 14 14 13 13 13 12 10 10 10 9
13 15 15 14 14 14 15 13 13 14 13 14 13 12 10 11 10 9 8 9 9 9
11 11 10 9 9 10 13 12 12 11 9 8 9 9 13 12 12 10 9 8 8 8
4 7 8 8 9 9 7 7 8 7 10 8 7 16 21 16 11 11 12 10 7 7
3 3 4 5 5 5 7 7 10 10 10 11 10 17 20 17 9 11 11 9 9 8
4 5 4 5 6 6 6 8 7 7 7 8 6 18 20 19 9 8 8 10 9 9
3 4 5 6 6 4 4 5 6 5 9 10 6 16 18 17 9 8 8 7 8 9
5 5 6 5 5 3 4 4 4 5 5 4 7 16 18 14 6 6 5 5 6 9
5 5 6 5 4 4 4 5 4 6 5 6 7 10 17 17 7 7 6 6 5 4
Wind_Direction
201 200 196 190 190 194 196 197 177 183 179 180 183 177 175 189 189 173 180 183 166 180
199 204 194 190 191 194 188 179 171 181 185 183 177 177 170 185 177 185 183 188 171 172
197 201 189 179 190 187 174 168 175 185 187 182 179 175 172 160 166 179 170 171 177 167
193 192 184 187 189 187 178 182 187 187 187 187 182 173 174 167 148 174 166 169 186 176
190 181 187 191 193 187 193 188 189 188 191 191 187 174 175 176 172 180 188 178 170 180
192 186 196 199 195 184 193 197 194 191 190 191 189 178 181 180 170 181 187 171 174 180
195 199 202 200 186 195 187 189 196 204 202 195 186 171 172 174 171 185 166 171 172 170
201 201 200 195 193 189 194 193 191 193 185 174 175 169 171 180 175 167 163 180 171 178
162 175 180 177 182 183 174 157 151 173 160 169 197 175 173 173 170 173 175 182 170 173
127 132 116 116 126 150 159 157 170 178 174 187 195 177 173 161 166 179 178 170 170 173
190 180 185 176 184 167 162 166 173 166 193 170 178 186 170 165 163 175 165 167 174 176
223 199 191 192 183 166 153 154 190 172 180 175 160 181 173 168 166 174 174 171 169 168
237 214 208 202 183 161 157 173 146 159 150 164 162 172 171 171 164 151 147 153 160 176
270 242 214 173 155 163 155 139 149 163 161 172 171 184 177 174 162 160 162 171 168 183